Location: Albany
(35.0170°S, 117.8920°E)
Time: 21:47:05
(UTC+08:00)

Explorer 7 - Visible Passes

Search period start: 25 January 2021 00:00
Search period end: 04 February 2021 00:00
Orbit: 484 x 678 km, 50.3° (Epoch: 24 January)

Date Brightness Start Highest point End Pass type
(mag) Time Alt. Az. Time Alt. Az. Time Alt. Az.
25 Jan 9.6 19:58:24 10° SSW 20:00:34 13° S 20:02:41 10° SE visible
25 Jan 8.2 21:38:18 10° SW 21:42:20 31° SSE 21:42:46 30° SE visible
25 Jan 9.9 23:18:53 10° WSW 23:19:02 11° WSW 23:19:02 11° WSW visible
26 Jan 9.4 20:02:48 10° SSW 20:05:33 15° SSE 20:08:12 10° SE visible
26 Jan 7.6 21:42:42 10° SW 21:46:52 47° SSE 21:46:52 47° SSE visible
27 Jan 9.1 20:07:09 10° SSW 20:10:29 19° SSE 20:13:40 10° ESE visible
27 Jan 7.3 21:47:11 10° SW 21:51:02 62° SSW 21:51:02 62° SSW visible
28 Jan 8.7 20:11:29 10° SSW 20:15:20 25° SSE 20:18:57 10° E visible
28 Jan 7.7 21:51:47 10° SW 21:55:14 47° W 21:55:14 47° W visible
29 Jan 8.1 20:15:50 10° SW 20:20:07 36° SSE 20:23:13 15° E visible
29 Jan 8.4 21:56:35 10° WSW 21:59:30 30° W 21:59:30 30° W visible
30 Jan 7.4 20:20:15 10° SW 20:24:48 55° SE 20:27:33 21° ENE visible
30 Jan 9.1 22:01:43 10° W 22:03:50 18° WNW 22:03:50 18° WNW visible
31 Jan 6.9 20:24:46 10° SW 20:29:24 89° SE 20:31:56 25° NE visible
31 Jan 9.7 22:07:54 10° WNW 22:08:14 11° WNW 22:08:14 11° WNW visible
01 Feb 7.5 20:29:25 10° WSW 20:33:55 54° NW 20:36:25 23° NNE visible
02 Feb 8.4 20:34:16 10° WSW 20:38:19 31° NW 20:40:58 17° N visible
03 Feb 9.2 20:39:31 10° W 20:42:38 18° NW 20:45:37 10° N visible
